Meadville, PA

6:57 AM EDT on March 27, 2017 (GMT -0400)
Port Meadville

Weather History for KGKJ - September, 2013

Change the Weather History Date:

Friday, September 6, 2013

  Actual Average Record
Temperature  
Mean Temperature 58 °F -  
Max Temperature 70 °F 76 °F 97 °F (1954)
Min Temperature 46 °F 53 °F 35 °F (1962)
Degree Days  
Heating Degree Days 8    
Growing Degree Days 8 (Base 50)    
Moisture  
Dew Point 44 °F    
Average Humidity 63    
Maximum Humidity 93    
Minimum Humidity 36    
Precipitation  
Precipitation 0.00 in - - ()
Sea Level Pressure  
Sea Level Pressure 30.24 in    
Wind  
Wind Speed 1 mph (East)    
Max Wind Speed 6 mph    
Max Gust Speed -    
Visibility 10 miles    
Events      
Averages and records for this station are not official NWS values.
T = Trace of Precipitation, MM = Missing Value Source: NWS Daily Summary

Daily Weather History Graph

Daily Weather History Graph

Search for Another Location

Airport or City:

Trip Planner

Search our weather history database for the weather conditions in past years. The results will help you decide how hot, cold, wet, or windy it might be!

Date:

Astronomy

Sep. 06, 2013 Rise Set
Actual Time 6:52 AM EDT 7:45 PM EDT
Civil Twilight 6:23 AM EDT 8:13 PM EDT
Nautical Twilight 5:50 AM EDT 8:46 PM EDT
Astronomical Twilight 5:15 AM EDT 9:21 PM EDT
Moon 8:04 AM EDT (9/6) 8:06 PM EDT (9/6)
Length of Visible Light 13h 49m
Length of Day
12h 53m
New Moon, 1% of the Moon is Illuminated
Sep 6
New Moon
Sep 12
First Quarter
Sep 19
Full
Sep 26
Last Quarter
Oct 4
New

Hourly Weather History & Observations

Time (EDT) Temp. Dew Point Humidity Pressure Visibility Wind Dir Wind Speed Gust Speed Precip Events Conditions
12:53 AM 48.9 °F 46.9 °F 93% 30.25 in 10.0 mi ENE 3.5 mph - N/A   Clear
1:53 AM 50.0 °F 43.0 °F 77% 30.26 in 10.0 mi Calm Calm - N/A   Clear
2:53 AM 50.0 °F 43.0 °F 77% 30.26 in 10.0 mi East 4.6 mph - N/A   Clear
3:53 AM 46.9 °F 42.1 °F 83% 30.27 in 10.0 mi Calm Calm - N/A   Clear
4:53 AM 48.0 °F 41.0 °F 77% 30.28 in 10.0 mi Calm Calm - N/A   Clear
5:53 AM 46.9 °F 41.0 °F 80% 30.28 in 10.0 mi Calm Calm - N/A   Clear
6:53 AM 46.9 °F 39.9 °F 77% 30.29 in 10.0 mi Calm Calm - N/A   Clear
7:53 AM 48.9 °F 39.9 °F 71% 30.30 in 10.0 mi Calm Calm - N/A   Clear
8:53 AM 53.1 °F 39.9 °F 61% 30.31 in 10.0 mi Calm Calm - N/A   Clear
9:53 AM 55.9 °F 42.1 °F 60% 30.31 in 10.0 mi Variable 5.8 mph - N/A   Clear
10:53 AM 59.0 °F 43.0 °F 55% 30.30 in 10.0 mi Calm Calm - N/A   Clear
11:53 AM 62.1 °F 44.1 °F 52% 30.29 in 10.0 mi Calm Calm - N/A   Clear
12:53 PM 64.9 °F 42.1 °F 43% 30.27 in 10.0 mi Calm Calm - N/A   Clear
1:53 PM 68.0 °F 42.1 °F 39% 30.25 in 10.0 mi Variable 4.6 mph - N/A   Clear
2:53 PM 69.1 °F 42.1 °F 38% 30.23 in 10.0 mi Calm Calm - N/A   Clear
3:53 PM 69.1 °F 41.0 °F 36% 30.21 in 10.0 mi East 3.5 mph - N/A   Clear
4:53 PM 68.0 °F 39.9 °F 36% 30.20 in 10.0 mi Calm Calm - N/A   Clear
5:53 PM 69.1 °F 43.0 °F 39% 30.19 in 10.0 mi Calm Calm - N/A   Clear
6:53 PM 64.0 °F 48.0 °F 56% 30.19 in 10.0 mi Calm Calm - N/A   Clear
7:53 PM 61.0 °F 46.9 °F 60% 30.18 in 10.0 mi Calm Calm - N/A   Clear
8:53 PM 57.9 °F 48.9 °F 72% 30.18 in 10.0 mi Calm Calm - N/A   Clear
9:53 PM 57.0 °F 51.1 °F 81% 30.18 in 10.0 mi Calm Calm - N/A   Clear
10:53 PM 55.9 °F 50.0 °F 80% 30.16 in 10.0 mi Calm Calm - N/A   Clear
11:53 PM 54.0 °F 48.0 °F 80% 30.15 in 10.0 mi SE 3.5 mph - N/A   Clear